Total_Precipitation_Accumulation
2.19 2.27 2.22 2.17 2.15 2.07 2.08 2.26 2.37 2.21 2.02 1.81 1.64 1.57 1.58 1.48 1.58 1.40 1.36 1.29 1.13 1.09 1.10 1.09 1.28 1.63 1.91 2.15 2.37 2.36 2.46 2.56 2.60 2.70 2.67 2.51 2.47 2.31
2.18 2.29 2.33 2.29 2.31 2.25 2.15 2.13 2.08 2.14 2.06 1.81 1.61 1.52 1.65 1.51 1.62 1.39 1.35 1.53 1.30 1.21 1.13 1.01 1.01 1.11 1.26 1.49 1.78 1.93 1.91 1.93 1.99 2.22 2.41 2.41 2.32 2.14
1.98 2.07 2.21 2.26 2.37 2.41 2.43 2.32 2.18 2.13 2.07 1.88 1.68 1.56 1.73 1.74 1.63 1.54 1.41 1.36 1.35 1.33 1.20 1.14 1.08 1.00 1.04 1.14 1.39 1.58 1.70 1.51 1.38 1.51 1.74 1.86 2.05 2.08
1.88 1.84 1.90 1.96 2.11 2.27 2.37 2.34 2.33 2.21 2.14 2.15 1.96 1.72 1.63 1.68 1.71 1.77 1.65 1.42 1.38 1.47 1.40 1.29 1.22 1.11 1.01 1.00 1.11 1.19 1.29 1.32 1.15 1.06 1.16 1.27 1.38 1.57
1.66 1.59 1.58 1.67 1.81 1.95 2.04 2.13 2.26 2.28 2.31 2.29 2.21 2.02 1.77 1.76 1.82 1.83 1.83 1.87 1.61 1.53 1.53 1.47 1.40 1.34 1.22 1.06 1.00 1.02 1.02 1.05 1.03 0.92 0.88 1.00 1.06 1.21
1.31 1.29 1.32 1.36 1.46 1.61 1.76 1.97 2.16 2.27 2.34 2.36 2.31 2.10 1.93 1.86 1.83 1.86 1.96 2.00 1.96 1.71 1.59 1.51 1.57 1.52 1.34 1.20 1.08 1.04 1.04 1.01 1.01 0.98 0.88 0.84 0.88 0.92
1.08 0.97 0.98 1.07 1.12 1.22 1.24 1.52 1.78 2.02 2.14 2.21 2.20 2.07 1.87 1.77 1.64 1.67 1.82 1.99 2.05 1.98 1.86 1.58 1.50 1.44 1.39 1.34 1.21 1.12 1.07 1.10 1.07 1.05 1.04 0.97 0.97 0.95
0.94 0.86 0.84 0.90 0.84 0.82 0.85 1.08 1.37 1.55 1.73 1.92 1.99 1.87 1.72 1.65 1.71 1.70 1.70 1.76 1.79 1.71 1.68 1.67 1.57 1.48 1.40 1.35 1.36 1.31 1.22 1.18 1.21 1.17 1.16 1.13 1.10 1.14
0.96 0.97 0.88 0.83 0.93 0.83 0.78 0.87 0.95 1.05 1.21 1.48 1.71 1.68 1.78 1.71 1.63 1.57 1.59 1.63 1.62 1.67 1.66 1.65 1.54 1.44 1.34 1.31 1.45 1.36 1.34 1.30 1.32 1.36 1.27 1.27 1.25 1.23
1.02 1.10 1.10 1.03 1.01 1.08 1.01 1.02 0.98 0.91 1.00 0.91 1.10 1.48 1.63 1.71 1.68 1.71 1.80 1.73 1.59 1.60 1.62 1.63 1.55 1.43 1.29 1.20 1.31 1.22 1.16 1.15 1.24 1.42 1.49 1.46 1.48 1.44
0.93 1.04 1.09 1.04 1.11 1.18 1.27 1.32 1.23 1.07 1.20 1.21 1.10 1.21 1.38 1.44 1.56 1.64 1.69 1.62 1.57 1.48 1.36 1.33 1.29 1.32 1.37 1.28 1.22 1.26 1.18 1.13 1.11 1.13 1.24 1.30 1.41 1.56
0.94 1.01 1.18 1.11 1.08 1.05 1.11 1.24 1.22 1.08 0.96 1.00 0.97 0.87 0.82 0.94 1.15 1.29 1.57 1.69 1.64 1.53 1.33 1.27 1.30 1.29 1.31 1.22 1.12 1.15 1.14 1.21 1.20 1.13 1.15 1.23 1.30 1.35
1.07 1.11 1.09 1.20 1.03 0.98 0.98 0.98 1.07 1.07 1.04 1.09 1.15 1.04 0.92 0.87 0.91 0.99 1.20 1.44 1.59 1.50 1.35 1.24 1.28 1.31 1.22 1.08 1.03 1.04 1.04 1.03 1.08 1.15 1.19 1.29 1.34 1.26
0.95 0.95 0.92 1.03 0.89 0.80 0.75 0.81 0.89 0.95 1.03 1.14 1.12 1.07 1.04 0.98 0.96 1.00 1.06 1.18 1.29 1.36 1.38 1.34 1.30 1.27 1.23 1.09 1.02 1.01 1.01 0.99 0.96 1.00 1.04 1.28 1.43 1.46
0.66 0.78 0.82 0.80 0.75 0.68 0.72 0.77 0.78 0.80 0.91 0.99 1.00 0.95 0.95 0.99 1.00 1.01 1.05 1.10 1.09 1.04 1.05 1.13 1.25 1.30 1.29 1.19 1.04 1.02 1.02 0.97 0.90 0.91 0.98 1.05 1.12 1.28
0.60 0.64 0.68 0.66 0.64 0.65 0.69 0.73 0.78 0.81 0.85 0.88 0.88 0.91 0.92 0.99 1.06 1.04 1.05 1.12 1.18 1.12 1.05 1.09 1.18 1.32 1.33 1.23 1.17 1.09 1.06 1.02 0.94 0.90 0.91 0.99 1.08 1.17
0.70 0.65 0.63 0.63 0.63 0.69 0.72 0.71 0.74 0.79 0.80 0.79 0.82 0.85 0.85 0.90 0.95 0.95 0.99 1.04 1.08 1.03 1.01 1.07 1.15 1.24 1.28 1.27 1.29 1.19 1.16 1.16 1.13 1.09 1.05 1.03 1.03 1.09
0.72 0.77 0.80 0.85 0.86 0.85 0.81 0.72 0.67 0.69 0.75 0.82 0.83 0.85 0.85 0.83 0.87 0.90 0.94 1.03 1.05 0.97 0.89 0.93 1.05 1.18 1.20 1.11 1.04 1.03 1.06 1.09 1.15 1.22 1.16 1.11 1.05 1.07
0.69 0.85 0.88 0.85 0.81 0.78 0.73 0.66 0.61 0.59 0.62 0.72 0.83 0.90 0.91 0.90 0.92 0.97 0.98 0.96 0.96 0.96 0.89 0.85 0.90 1.06 1.12 0.98 0.85 0.84 0.88 0.93 1.02 1.09 1.11 1.05 0.99 1.04
0.66 0.76 0.78 0.76 0.69 0.63 0.57 0.52 0.52 0.50 0.51 0.56 0.61 0.70 0.85 0.96 1.04 1.06 1.08 1.11 1.11 1.07 1.01 0.91 0.84 0.87 0.98 0.99 0.87 0.74 0.76 0.83 0.93 0.98 1.00 1.01 1.01 1.06
0.47 0.50 0.51 0.52 0.51 0.48 0.45 0.47 0.50 0.50 0.51 0.51 0.52 0.57 0.67 0.82 1.00 1.10 1.14 1.20 1.19 1.18 1.17 1.08 1.03 1.12 1.05 1.08 1.04 0.82 0.71 0.76 0.85 0.89 0.94 1.02 1.03 0.98
0.39 0.39 0.41 0.42 0.41 0.41 0.42 0.45 0.50 0.53 0.51 0.51 0.55 0.61 0.71 0.77 0.82 0.94 1.09 1.14 1.08 1.05 1.07 1.09 1.13 1.16 1.14 1.19 1.13 0.97 0.85 0.79 0.84 0.92 0.95 1.00 1.01 0.99
0.37 0.40 0.42 0.43 0.42 0.47 0.47 0.47 0.50 0.53 0.53 0.52 0.54 0.61 0.71 0.81 0.87 0.90 0.93 0.98 1.03 1.07 1.08 1.07 1.08 1.10 1.12 1.17 1.25 1.21 1.07 0.96 0.92 0.93 0.94 1.03 0.98 0.87